Tracking 25723 objects as of 26-Jun-2022
HD Live streaming from Space Station
objects crossing your sky now

DMSP 5D-2 F13 DEB

Track DMSP 5D-2 F13 DEB now!
10-day predictions


NORAD ID: 42301
Int'l Code: 1995-015HT
Perigee: 674.5 km
Apogee: 769.8 km
Inclination: 98.7 °
Period: 99.1 minutes
Semi major axis: 7093 km
RCS: Unknown
Launch date: March 24, 1995
Source: United States (US)
Launch site: AIR FORCE WESTERN TEST RANGE (AFWTR)

Note: This is SATELLITE DEBRIS
aabbcc
Your satellite tracking list
Your tracking list is empty




NASA's NSSDC Master Catalog

Two Line Element Set (TLE):
1 42301U 95015HT  22177.23733019  .00013459  00000-0  31550-2 0  9995
2 42301  98.7336 284.6115 0067219 268.5865  90.7628 14.53260558366095
Source of the keplerian elements: AFSPC